Torna al catalogo

GEESAT 5-07

AttivoScienzaLEO
NORAD 65556·PAYLOAD·🇨🇳 China

Lanciato Sep 8, 2025 da Yellow Sea Launch Area

Loading…

Prossimi Passaggi (prossime 24 ore)

TLE

AggiornatoSource: Space-Track

Epoca: Sep 14, 2026, 07:09 UTC

1 65556U 25201G   26257.29822450  .00001143  00000-0  16149-3 0  9994
2 65556  49.9902 345.6860 0013178 294.3254  65.6308 14.84388550 55030

Traccia GEESAT 5-07 in tempo reale con AllMySat

Download on the App Store